Airfield :
LOGIN :

Register | Disclaimer

   EN    FR    IT 

 










Legend :    VFR   Marginal VFR   IFR   Intensive IFR   Very Intensive IFR
Visi :
Ceiling :
>= 8 km
>= 3000ft
5 to 8 km
1000 to 3000 ft
1500m to 5 km
500 to 1000 ft
800 to 1500m
200 to 500 ft
< 800m
< 200 ft
Symbols :   Thunderstorms  Fog  Heavy snow  Heavy precipitations  Wind > 20 kt
SIGMETs :     Misc.  Thunderstorms  Icing  Turbulence  Mountain Waves  Volcanic Ashes







- Airport Elevation : 93 ft
- IATA code : XRY


LEJR - Jerez

CURRENT METAR :
  • 222200Z AUTO 21004KT 160V250 9999 NCD 20/17 Q1016

EXPIRED METARs :
  • 222130Z AUTO 23005KT 9999 NCD 22/17 Q1016
  • 222100Z 24004KT 210V280 CAVOK 22/17 Q1015
  • 222030Z 24005KT 170V290 CAVOK 23/17 Q1015
  • 222000Z 25007KT 220V280 CAVOK 24/17 Q1015
  • 221930Z 25008KT 220V300 CAVOK 25/17 Q1014

TAF TAF LEJR
Valid from the 22 at 18:00 until the 23 at 18:00 UTC


221700Z 2218/2318 27005KT CAVOK TX33/2314Z TN18/2305Z
No reported NOTAMs for that airfield.



MET'MAP, your aeronautical weather chart ! - Copyright ORBIFLY December 2007 - Disclaimer

ORBIFLY MET'MAP TEAM :

Programming & Development : Alexandra Zaïnal
Concept & Development : Baudouin d'Aumeries
Co-Development & Prog : Marc-Olivier Méhu
Technical & hardware support : Manuel Goepfert

Contact : metmap@orbifly.com




SOURCES & CREDITS :

   NOAA